| time (UTC) | temp C | wind direction | speed KPH | gust KPH | rain 1hr cm | rain 24hr cm | rain mn cm | humidity % | barometer mb |
| 20260504120110 | 11 | 288 | 3.2 | 9.7 | 0.00 | 0.00 | 0.00 | 62 | 1014.3 |
| 20260504081532 | 5 | 238 | 0.0 | 0.0 | 0.00 | 0.00 | 0.00 | 79 | 1013.3 |
| 20260504050003 | 5 | 238 | 0.0 | 0.0 | 0.00 | 0.00 | 0.00 | 77 | 1012.9 |
| 20260504044501 | 5 | 238 | 0.0 | 0.0 | 0.00 | 0.00 | 0.00 | 76 | 1012.9 |
| 20260504043110 | 6 | 238 | 0.0 | 0.0 | 0.00 | 0.00 | 0.00 | 74 | 1012.7 |
| 20260504041557 | 6 | 238 | 0.0 | 0.0 | 0.00 | 0.00 | 0.00 | 74 | 1012.7 |
| 20260504040053 | 6 | 238 | 0.0 | 0.0 | 0.00 | 0.00 | 0.00 | 73 | 1012.5 |
| 20260504034552 | 6 | 238 | 0.0 | 0.0 | 0.00 | 0.00 | 0.00 | 71 | 1012.7 |
| 20260504033101 | 7 | 238 | 0.0 | 1.6 | 0.00 | 0.00 | 0.00 | 72 | 1012.5 |
| 20260504031600 | 7 | 238 | 0.0 | 0.0 | 0.00 | 0.00 | 0.00 | 71 | 1012.3 |
| 20260504030051 | 7 | 238 | 0.0 | 0.0 | 0.00 | 0.00 | 0.00 | 70 | 1012.5 |
| 20260504024559 | 8 | 238 | 0.0 | 1.6 | 0.00 | 0.00 | 0.00 | 67 | 1012.6 |
| 20260504023050 | 8 | 238 | 0.0 | 1.6 | 0.00 | 0.00 | 0.00 | 66 | 1012.7 |
| 20260504021553 | 8 | 238 | 0.0 | 6.4 | 0.00 | 0.00 | 0.00 | 63 | 1012.8 |
| 20260504020051 | 8 | 245 | 0.0 | 0.0 | 0.00 | 0.00 | 0.00 | 62 | 1012.5 |
| 20260504014547 | 8 | 245 | 0.0 | 0.0 | 0.00 | 0.00 | 0.00 | 58 | 1012.5 |
| 20260504013054 | 9 | 245 | 0.0 | 0.0 | 0.00 | 0.00 | 0.00 | 55 | 1012.3 |
| 20260504011545 | 9 | 245 | 0.0 | 0.0 | 0.00 | 0.00 | 0.00 | 50 | 1012.3 |
| 20260504010045 | 10 | 245 | 0.0 | 0.0 | 0.00 | 0.00 | 0.00 | 50 | 1012.2 |
| 20260504004558 | 10 | 245 | 0.0 | 0.0 | 0.00 | 0.00 | 0.00 | 47 | 1011.8 |
| 20260504003043 | 10 | 245 | 0.0 | 0.0 | 0.00 | 0.00 | 0.00 | 44 | 1011.7 |
| 20260504001546 | 11 | 245 | 0.0 | 0.0 | 0.00 | 0.00 | 0.00 | 42 | 1011.5 |
| 20260504000043 | 11 | 245 | 0.0 | 3.2 | 0.00 | 0.00 | 0.00 | 41 | 1011.3 |
| 20260503234541 | 12 | 267 | 0.0 | 3.2 | 0.00 | 0.00 | 0.00 | 40 | 1011.0 |
| 20260503233041 | 12 | 148 | 0.0 | 3.2 | 0.00 | 0.00 | 0.00 | 38 | 1010.7 |
| 20260503231549 | 12 | 249 | 0.0 | 11.3 | 0.00 | 0.00 | 0.00 | 37 | 1010.6 |
| 20260503230040 | 13 | 283 | 0.0 | 8.0 | 0.00 | 0.00 | 0.00 | 36 | 1010.4 |
| 20260503224541 | 13 | 208 | 1.6 | 8.0 | 0.00 | 0.00 | 0.00 | 35 | 1010.3 |
| 20260503223039 | 13 | 296 | 4.8 | 9.7 | 0.00 | 0.00 | 0.00 | 34 | 1010.5 |
| 20260503221537 | 13 | 296 | 3.2 | 16.1 | 0.00 | 0.00 | 0.00 | 35 | 1010.2 |
| 20260503220040 | 13 | 274 | 3.2 | 16.1 | 0.00 | 0.00 | 0.00 | 35 | 1010.4 |
| 20260503214536 | 13 | 292 | 4.8 | 9.7 | 0.00 | 0.00 | 0.00 | 35 | 1010.4 |
| 20260503213036 | 14 | 271 | 4.8 | 9.7 | 0.00 | 0.00 | 0.00 | 37 | 1010.3 |
| 20260503211539 | 15 | 290 | 4.8 | 11.3 | 0.00 | 0.00 | 0.00 | 36 | 1010.3 |
| 20260503210034 | 14 | 257 | 4.8 | 24.1 | 0.00 | 0.00 | 0.00 | 35 | 1010.2 |
| 20260503204533 | 14 | 279 | 8.0 | 14.5 | 0.00 | 0.00 | 0.00 | 39 | 1010.3 |
| 20260503203031 | 13 | 304 | 4.8 | 12.9 | 0.00 | 0.00 | 0.00 | 38 | 1010.1 |
| 20260503201529 | 13 | 297 | 1.6 | 9.7 | 0.00 | 0.00 | 0.00 | 41 | 1010.2 |
| 20260503200027 | 13 | 38 | 6.4 | 14.5 | 0.00 | 0.00 | 0.00 | 41 | 1010.3 |
| 20260503194525 | 13 | 299 | 4.8 | 11.3 | 0.00 | 0.00 | 0.00 | 40 | 1010.4 |
| 20260503193035 | 13 | 279 | 4.8 | 14.5 | 0.00 | 0.00 | 0.00 | 41 | 1010.6 |
| 20260503191524 | 12 | 31 | 3.2 | 9.7 | 0.00 | 0.00 | 0.00 | 44 | 1010.8 |
| 20260503190031 | 13 | 260 | 6.4 | 14.5 | 0.00 | 0.00 | 0.00 | 41 | 1010.8 |
| 20260503184523 | 12 | 291 | 6.4 | 12.9 | 0.00 | 0.00 | 0.00 | 41 | 1010.8 |
| 20260503183023 | 13 | 281 | 6.4 | 19.3 | 0.00 | 0.00 | 0.00 | 40 | 1010.8 |
| 20260503181525 | 12 | 276 | 3.2 | 11.3 | 0.00 | 0.00 | 0.00 | 41 | 1010.6 |
| 20260503180021 | 13 | 276 | 4.8 | 12.9 | 0.00 | 0.00 | 0.00 | 40 | 1010.5 |
| 20260503174524 | 13 | 296 | 4.8 | 19.3 | 0.00 | 0.00 | 0.00 | 39 | 1010.4 |
| 20260503173021 | 13 | 269 | 6.4 | 14.5 | 0.00 | 0.00 | 0.00 | 40 | 1010.5 |
| 20260503171518 | 12 | 285 | 6.4 | 14.5 | 0.00 | 0.00 | 0.00 | 40 | 1010.7 |